Regional Weather Roundup
Issued by NWS

Home | Current Version | Previous Version | Graphics & Text | Print | Product List | Glossary On
Versions: 1 2 3 4 5 6 7 8 9 10 11 12 13 14 15 16 17 18 19 20 21 22 23 24 25 26 27 28 29 30 31 32 33 34 35 36 37 38 39 40 41 42 43 44 45 46 47 48 49 50
000
ASUS45 KPSR 231500
RWRAZ

ARIZONA HOURLY REGIONAL WEATHER ROUNDUP
NATIONAL WEATHER SERVICE PHOENIX AZ
800 AM MST SAT MAY 23 2015

NOTE: FAIR INDICATES FEW OR NO CLOUDS BELOW 12,000 FEET WITH NO
SIGNIFICANT WEATHER AND/OR OBSTRUCTIONS TO VISIBILITY.

AZZ001>003-036-231600-
NORTHWEST ARIZONA

CITY           SKY/WX    TMP DP  RH WIND       PRES   REMARKS
KINGMAN        SUNNY     58  40  51 CALM      30.01R
$$

AZZ004>008-015-016-018-231600-
NORTH CENTRAL ARIZONA

CITY           SKY/WX    TMP DP  RH WIND       PRES   REMARKS
GRAND CANYON   CLOUDY    40  37  89 SW7       30.07R
WILLIAMS       CLOUDY    45  37  76 SW12      30.14S
PRESCOTT       MOSUNNY   53  35  50 S6        30.06R
FLAGSTAFF      NOT AVBL
PAYSON         SUNNY     52  34  50 CALM      30.09R
PAGE           LGT RAIN  49  43  80 S6        30.00R
$$

AZZ009>014-017-231600-
NORTHEAST ARIZONA

CITY           SKY/WX    TMP DP  RH WIND       PRES   REMARKS
WINSLOW        NOT AVBL
SAINT JOHNS    SUNNY     52  33  48 S8        30.07S
WINDOW ROCK    SUNNY     49  29  46 SW16G22   30.07S
SHOW LOW       SUNNY     48  28  46 SW14      30.11R
$$

AZZ023-231600-
GREATER PHOENIX AREA

CITY           SKY/WX    TMP DP  RH WIND       PRES   REMARKS
PHOENIX        SUNNY     67  41  38 NE6       29.99R
BUCKEYE        SUNNY     63  45  51 S5        30.01R
GLENDALE       MOSUNNY   66  43  42 S10       30.01R
LUKE AFB       SUNNY     66  44  44 SW12      29.99R
DEER VALLEY    SUNNY     62  41  46 CALM      30.00R
SCOTTSDALE     SUNNY     64  40  41 CALM      30.02R
MESA-FALCON    SUNNY     64  39  39 E9        30.00R
MESA-GATEWAY   SUNNY     63  43  48 SE6       30.02R
CHANDLER       SUNNY     64  45  48 VRB6      30.01R
$$

AZZ027-028-231600-
SOUTHWEST MARICOPA COUNTY AND PINAL COUNTY

CITY           SKY/WX    TMP DP  RH WIND       PRES   REMARKS
CASA GRANDE    SUNNY     64  39  39 S5        30.01R
GILA BEND      FAIR      67  42  41 SW6       30.00R
$$

AZZ503-504-507>509-231600-
SOUTHEAST ARIZONA

CITY           SKY/WX    TMP DP  RH WIND       PRES   REMARKS
TUCSON         SUNNY     61  35  37 CALM      30.06R
DAVIS-MONTHAN  SUNNY     60  35  38 SW5       30.04R
RYAN FIELD       N/A     61  36  39 CALM      30.07R
NOGALES        SUNNY     57  32  38 S5        30.07R
SIERRA VISTA   SUNNY     55  35  45 VRB5      30.09R
SAFFORD        SUNNY     64  35  34 NW9       30.02R
$$

AZZ020-021-025-026-031-231600-
SOUTHWEST ARIZONA

CITY           SKY/WX    TMP DP  RH WIND       PRES   REMARKS
YUMA           SUNNY     66  48  52 W7        30.00R
$$

CAZ031-033-041-043-047-048-061-231600-
SOUTHERN CALIFORNIA

CITY           SKY/WX    TMP DP  RH WIND       PRES   REMARKS
DOWNTOWN L.A.  MOSUNNY   63  52  67 CALM      30.08R
L.A. AIRPORT   PTSUNNY   60  53  77 E5        30.09R
SAN DIEGO      PTSUNNY   63  53  70 W8        30.12R
BURBANK        MOSUNNY   59  51  75 CALM      30.08R
ONTARIO        CLOUDY    57  53  86 W5        30.09R
RIVERSIDE      CLOUDY    59  52  77 CALM      30.09R
PALM SPRINGS   MOSUNNY   68  46  45 CALM      29.99R
EL CENTRO NAS  SUNNY     70  47  43 SW20      30.00R
IMPERIAL       SUNNY     69  49  48 W17       29.98R
BLYTHE         SUNNY     65  48  54 CALM      29.97R
$$

NVZ020-UTZ003-231600-
SOUTHERN NEVADA-UTAH

CITY           SKY/WX    TMP DP  RH WIND       PRES   REMARKS
LAS VEGAS      NOT AVBL
SALT LAKE CITY CLOUDY    52  46  80 CALM      29.93R
$$

NMZ009-TXZ055-231600-
NEW MEXICO-WEST TEXAS

CITY           SKY/WX    TMP DP  RH WIND       PRES   REMARKS
ALBUQUERQUE    MOSUNNY   60  29  30 N7        30.04S
EL PASO        MOSUNNY   70  25  18 W15       30.03R
$$


........................KEY........................
SKY/WX - SKY CONDITION/WEATHER
TMP    - TEMPERATURE IN FAHRENHEIT
DP     - DEW POINT IN FAHRENHEIT
RH     - RELATIVE HUMIDITY IN PERCENT
WIND   - DIRECTION AND SPEED IN MILES PER HOUR (MPH)
VRB    - VARIABLE WIND DIRECTION
PRES   - MEAN SEA LEVEL PRESSURE IN INCHES OF MERCURY
         F - FALLING PRESSURE   R - RISING PRESSURE
         S - STEADY PRESSURE
VSB    - VISIBILITY IN MILES
HX     - HEAT INDEX IN FAHRENHEIT
WCI    - WIND CHILL INDEX IN FAHRENHEIT
TC     - TEMPERATURE IN CELSIUS WHICH IS ALSO KNOWN AS
         TEMPERATURE IN CENTIGRADE
AFB    - AIR FORCE BASE
         LUKE AFB IS LUKE AIR FORCE BASE
         DAVIS-MONTHAN IS DAVIS-MONTHAN AIR FORCE BASE
NAS    - NAVAL AIR STATION
         EL CENTRO NAS IS EL CENTRO NAVAL AIR STATION
N/A    - NOT AVAILABLE




USA.gov is the U.S. government's official web portal to all federal, state and local government web resources and services.